Location: ????????
(48.4751°N, 37.6926°E)
Time: 13:36:33
(UTC+00:00)

Lacrosse 5 - Pass Details

Date: 20 January 2021
Orbit: 715 x 724 km, 57.0° (Epoch: 22 February)

Event Time Altitude Azimuth Distance (km) Brightness Sun altitude
Rises 15:55:19 0° 305° (NW) 3,124 5.8 -17.2°
Reaches altitude 10° 15:57:42 10° 306° (NW) 2,201 5.0 -17.6°
Maximum altitude 16:02:46 90° 216° (SW) 721 1.8 -18.5°
Enters shadow 16:05:45 25° 127° (SE) 1,416 3.0 -18.9°
